| time (UTC) | temp F | wind direction | speed knots | gust knots | rain 1hr in | rain 24hr in | rain mn in | humidity % | barometer mb |
| 20260505093144 | 47 | 195 | 5.2 | 9.6 | 0.06 | 1.77 | 0.91 | 97 | 1011.5 |
| 20260505091548 | 48 | 186 | 7.0 | 12.2 | 0.07 | 1.75 | 0.88 | 97 | 1011.3 |
| 20260505090050 | 48 | 213 | 5.2 | 8.7 | 0.12 | 1.85 | 0.86 | 98 | 1011.2 |
| 20260505084545 | 47 | 132 | 0.9 | 3.5 | 0.14 | 1.84 | 0.85 | 98 | 1011.1 |
| 20260505083142 | 47 | 74 | 0.0 | 0.0 | 0.16 | 1.83 | 0.83 | 98 | 1011.0 |
| 20260505081544 | 46 | 74 | 0.0 | 0.0 | 0.15 | 1.80 | 0.80 | 98 | 1011.0 |
| 20260505080044 | 47 | 28 | 0.0 | 0.0 | 0.11 | 1.81 | 0.74 | 97 | 1011.0 |
| 20260505074542 | 47 | 27 | 0.0 | 0.0 | 0.09 | 1.78 | 0.71 | 98 | 1011.0 |
| 20260505073142 | 46 | 27 | 0.0 | 0.0 | 0.06 | 1.75 | 0.68 | 97 | 1011.0 |
| 20260505071542 | 47 | 26 | 0.0 | 0.0 | 0.06 | 1.72 | 0.65 | 97 | 1010.8 |
| 20260505070041 | 47 | 27 | 0.0 | 0.0 | 0.03 | 1.72 | 0.63 | 97 | 1010.7 |
| 20260505064544 | 47 | 24 | 0.0 | 0.0 | 0.02 | 1.70 | 0.61 | 97 | 1010.7 |
| 20260505063140 | 47 | 342 | 0.0 | 0.0 | 0.02 | 1.70 | 0.61 | 97 | 1010.7 |
| 20260505061552 | 47 | 340 | 0.0 | 0.9 | 0.01 | 1.69 | 0.60 | 97 | 1010.5 |
| 20260505060044 | 46 | 351 | 1.7 | 4.3 | 0.01 | 1.69 | 0.60 | 97 | 1010.5 |
| 20260505054600 | 46 | 336 | 1.7 | 4.3 | 0.01 | 1.69 | 0.60 | 97 | 1010.2 |
| 20260505053141 | 46 | 1 | 2.6 | 5.2 | 0.00 | 1.68 | 0.59 | 97 | 1010.3 |
| 20260505051545 | 46 | 351 | 1.7 | 3.5 | 0.00 | 1.68 | 0.59 | 97 | 1010.2 |
| 20260505041556 | 46 | 346 | 2.6 | 5.2 | 0.01 | 1.68 | 0.59 | 96 | 1010.4 |
| 20260505040049 | 46 | 183 | 0.0 | 2.6 | 0.03 | 1.68 | 0.59 | 96 | 1010.4 |
| 20260505034547 | 46 | 351 | 0.9 | 4.3 | 0.06 | 1.68 | 0.59 | 96 | 1010.7 |
| 20260505033146 | 47 | 258 | 0.0 | 3.5 | 0.09 | 1.68 | 0.59 | 96 | 1011.0 |
| 20260505031556 | 47 | 264 | 0.0 | 6.1 | 0.11 | 1.67 | 0.57 | 96 | 1011.1 |
| 20260505030041 | 47 | 280 | 2.6 | 8.7 | 0.11 | 1.65 | 0.56 | 96 | 1011.3 |
| 20260505024542 | 47 | 246 | 3.5 | 7.8 | 0.09 | 1.61 | 0.53 | 97 | 1011.7 |
| 20260505023140 | 47 | 313 | 3.5 | 7.0 | 0.09 | 1.59 | 0.50 | 97 | 1011.8 |
| 20260505021537 | 47 | 9 | 0.0 | 3.5 | 0.11 | 1.56 | 0.47 | 97 | 1011.8 |
| 20260505020036 | 47 | 124 | 0.9 | 7.0 | 0.13 | 1.54 | 0.45 | 97 | 1011.6 |
| 20260505014538 | 46 | 293 | 2.6 | 6.1 | 0.13 | 1.52 | 0.43 | 97 | 1011.9 |
| 20260505013135 | 46 | 336 | 4.3 | 7.0 | 0.13 | 1.50 | 0.41 | 96 | 1011.7 |
| 20260505011553 | 46 | 317 | 0.0 | 2.6 | 0.09 | 1.46 | 0.37 | 96 | 1011.9 |
| 20260505010051 | 46 | 316 | 1.7 | 5.2 | 0.06 | 1.41 | 0.32 | 96 | 1011.8 |
| 20260505004555 | 46 | 106 | 0.0 | 7.8 | 0.06 | 1.39 | 0.30 | 96 | 1012.1 |
| 20260505003149 | 46 | 320 | 0.0 | 1.7 | 0.05 | 1.37 | 0.28 | 96 | 1012.1 |
| 20260505001551 | 47 | 321 | 0.9 | 4.3 | 0.07 | 1.36 | 0.28 | 96 | 1012.1 |
| 20260505000100 | 47 | 5 | 0.0 | 0.0 | 0.09 | 1.35 | 0.26 | 96 | 1012.2 |
| 20260504234543 | 47 | 5 | 0.0 | 0.0 | 0.10 | 1.33 | 0.24 | 96 | 1012.4 |
| 20260504233144 | 47 | 7 | 0.0 | 4.3 | 0.15 | 1.32 | 0.24 | 96 | 1012.5 |
| 20260504231542 | 47 | 277 | 0.9 | 3.5 | 0.17 | 1.29 | 0.20 | 95 | 1012.8 |
| 20260504230057 | 47 | 274 | 2.6 | 3.5 | 0.17 | 1.31 | 0.17 | 95 | 1013.1 |
| 20260504224540 | 48 | 250 | 0.0 | 3.5 | 0.17 | 1.28 | 0.14 | 94 | 1013.2 |
| 20260504221602 | 48 | 277 | 2.6 | 10.4 | 0.07 | 1.17 | 0.03 | 93 | 1013.1 |
| 20260504220055 | 48 | 288 | 7.0 | 12.2 | 0.04 | 1.13 | 1.13 | 94 | 1013.1 |
| 20260504214553 | 48 | 267 | 1.7 | 7.0 | 0.01 | 1.11 | 1.11 | 96 | 1013.2 |
| 20260504213151 | 47 | 257 | 5.2 | 8.7 | 0.00 | 1.10 | 1.10 | 97 | 1013.2 |
| 20260504211547 | 47 | 275 | 0.9 | 3.5 | 0.00 | 1.10 | 1.10 | 97 | 1013.1 |
| 20260504210047 | 47 | 272 | 0.0 | 6.1 | 0.00 | 1.10 | 1.10 | 97 | 1013.0 |
| 20260504204543 | 47 | 213 | 1.7 | 4.3 | 0.00 | 1.10 | 1.10 | 97 | 1013.1 |
| 20260504203141 | 47 | 288 | 2.6 | 6.1 | 0.00 | 1.10 | 1.10 | 97 | 1013.3 |
| 20260504201544 | 47 | 329 | 1.7 | 4.3 | 0.00 | 1.10 | 1.10 | 97 | 1013.6 |
| 20260504200043 | 47 | 328 | 3.5 | 7.0 | 0.00 | 1.10 | 1.10 | 97 | 1013.6 |
| 20260504194542 | 47 | 356 | 2.6 | 7.0 | 0.00 | 1.10 | 1.10 | 97 | 1013.7 |
| 20260504193139 | 47 | 327 | 0.9 | 7.8 | 0.00 | 1.10 | 1.10 | 97 | 1013.8 |
| 20260504191555 | 47 | 322 | 0.0 | 3.5 | 0.00 | 1.10 | 1.10 | 97 | 1013.7 |
| 20260504190049 | 47 | 11 | 3.5 | 4.3 | 0.01 | 1.10 | 1.10 | 97 | 1013.9 |
| 20260504184548 | 47 | 1 | 0.0 | 3.5 | 0.02 | 1.10 | 1.10 | 97 | 1013.9 |
| 20260504183148 | 47 | 335 | 0.0 | 1.7 | 0.02 | 1.10 | 1.10 | 97 | 1014.0 |
| 20260504181548 | 47 | 331 | 0.0 | 3.5 | 0.02 | 1.10 | 1.10 | 97 | 1014.0 |
| 20260504180045 | 48 | 335 | 0.0 | 3.5 | 0.02 | 1.09 | 1.09 | 97 | 1014.0 |
| 20260504174545 | 48 | 329 | 2.6 | 5.2 | 0.02 | 1.09 | 1.09 | 97 | 1014.2 |
| 20260504173142 | 48 | 15 | 3.5 | 5.2 | 0.02 | 1.09 | 1.09 | 97 | 1013.9 |
| 20260504171541 | 48 | 290 | 1.7 | 3.5 | 0.02 | 1.08 | 1.08 | 97 | 1014.2 |